Location: Arroyo de Pedro Moro
(40.2573°N, 4.1627°W)
Time: 04:10:16
(UTC+00:00)

Daily predictions for brighter satellites

Satellite Brightness Start Highest point End
(mag) Time Altitude Azimuth Time Altitude Azimuth Time Altitude Azimuth
MetOp-A 4.3 00:06:33 42° NNE 00:06:33 42° NNE 00:09:28 10° N
Cosmos 2082 Rocket 2.0 00:03:09 10° NNW 00:08:48 81° WSW 00:09:02 78° SSW
Cosmos 2278 Rocket 3.7 00:06:22 21° WSW 00:09:07 31° WNW 00:14:06 10° N
SL-8 R/B 3.9 00:15:45 67° NNW 00:15:49 67° NNW 00:20:33 10° ENE
Cosmos 1110 Rocket 3.9 00:11:31 10° NNW 00:16:32 76° W 00:16:32 76° W
Cosmos 1610 Rocket 4.4 00:11:23 10° N 00:17:47 88° E 00:18:49 65° S
Cosmos 1452 Rocket 3.5 00:15:23 10° NNW 00:20:39 73° ENE 00:20:55 71° E
Cosmos 2154 Rocket 4.1 00:15:09 10° NNW 00:21:13 58° W 00:22:04 54° SW
Cosmos 2184 Rocket 4.3 00:15:18 10° NNW 00:21:22 53° W 00:22:19 49° WSW
NOSS 3-1 (C) 3.3 00:22:32 50° ENE 00:22:32 50° ENE 00:26:45 10° NE
CZ-3B R/B 3.4 00:28:33 55° SSW 00:30:07 73° SE 00:50:40 10° NE
Cosmos 967 Rocket 4.4 00:29:04 64° SSW 00:30:10 88° SE 00:36:42 10° NNE
Cosmos 972 Rocket 4.0 00:28:56 10° NNW 00:34:33 73° ENE 00:34:56 69° ESE
COSMOS 2406 3.1 00:30:36 10° NNW 00:36:19 79° ENE 00:37:01 67° SE
ARIANE 5 R/B 4.4 00:37:48 22° WNW 00:37:48 22° WNW 00:40:29 10° NW
Cosmos 2341 Rocket 4.2 00:30:50 10° N 00:37:00 61° E 00:38:22 49° SE
IRIDIUM 104 4.2 00:34:09 10° N 00:39:23 81° W 00:39:29 81° WSW
SL-4 R/B 4.2 00:42:23 14° NE 00:42:23 14° NE 00:42:53 10° NE
SL-8 Rocket 4.1 00:34:36 10° N 00:40:44 68° E 00:41:58 55° SE
Cosmos 2297 3.7 00:45:21 63° SE 00:45:42 65° ESE 00:51:23 10° NNE
IRIDIUM 114 4.3 00:43:21 10° N 00:48:31 66° W 00:48:37 66° W
GEOS 3 Rocket 4.2 00:50:02 44° W 00:50:02 44° W 00:54:31 10° NW
Cosmos 2369 Rocket 2.0 00:50:46 76° S 00:51:09 83° ESE 00:56:47 10° NNE
Lacrosse 4 Rocket 3.9 00:50:52 10° N 00:53:49 18° NE 00:56:30 11° E
CZ-2C R/B 2.8 00:55:17 56° W 00:55:17 56° W 01:00:18 10° NNW
Cosmos 2228 Rocket 3.4 00:59:27 57° NW 00:59:27 57° NW 01:03:19 10° N
ADEOS Rocket 4.3 00:59:00 10° NE 01:03:59 25° E 01:05:49 22° ESE
Okean 1-7 4.4 01:06:59 28° WNW 01:06:59 28° WNW 01:10:14 10° NNW
Cosmos 1818 3.5 01:09:43 68° SE 01:10:02 70° ESE 01:15:28 10° NE
Geosat 4.2 01:05:52 10° NNE 01:10:48 60° WNW 01:11:26 55° W
Meteor 1-24 Rocket 4.2 01:13:42 45° WSW 01:14:48 50° WNW 01:20:40 10° N
ARIANE 6 FM1 Upper Stage 3.5 01:16:12 42° NW 01:16:15 42° NW 01:20:12 10° NNE
Meteor 2-5 Rocket 4.0 01:16:25 49° WSW 01:17:20 54° WNW 01:23:04 10° N
Cosmos 1300 Rocket 4.0 01:14:41 10° N 01:18:55 52° E 01:19:07 51° E
Cosmos 1315 Rocket 4.0 01:16:45 10° NNW 01:19:10 32° NW 01:19:10 32° NW
CRYOSAT 2 4.4 01:21:32 63° W 01:21:33 63° W 01:26:25 10° NNW
Cosmos 1703 Rocket 3.7 01:25:41 64° WNW 01:25:41 64° WNW 01:29:48 10° N
Cosmos 1302 Rocket 4.4 01:21:35 10° NNW 01:26:24 46° W 01:26:24 46° W
Cosmos 2181 Rocket 4.0 01:25:44 53° SSW 01:27:12 73° W 01:33:35 10° N
ATLAS 5 CENTAUR R/B 3.3 01:30:58 15° NW 01:30:58 15° NW 01:32:29 10° N
Nadezhda 3 Rocket 4.1 01:29:56 45° SSE 01:31:49 67° E 01:38:01 10° NNE
Cosmos 2366 rocket 4.3 01:28:32 10° NNW 01:34:37 50° W 01:35:49 44° SW
Cosmos 2263 4.5 01:35:19 46° WSW 01:36:37 57° WNW 01:42:13 10° NNE
SJ 16-02 3.2 01:39:46 19° ESE 01:40:31 20° E 01:43:36 10° NE
Cosmos 921 Rocket 3.7 01:41:10 42° ESE 01:41:23 42° ESE 01:45:22 10° NNE
Kakehashi 4.4 01:40:50 40° S 01:41:48 42° SSE 01:53:39 10° E
USA 308 3.8 01:41:52 33° NW 01:42:08 33° NNW 01:45:56 10° NE
PSLV R/B 3.9 01:38:34 10° N 01:42:06 70° NNW 01:42:06 70° NNW
Nimbus 7 Rocket 4.5 01:39:54 10° NNE 01:45:46 70° ESE 01:47:36 45° S
ACS3 Solar Sail 2.8 01:41:37 10° N 01:46:31 30° WNW 01:48:09 26° W
Cosmos 1821 Rocket 4.1 01:43:30 10° NNW 01:49:26 57° W 01:50:51 46° SW
COSMOS 2455 2.9 01:47:53 45° SW 01:49:41 68° WNW 01:55:42 10° NNE
Spot 1 4.2 01:45:14 10° NNE 01:50:13 87° W 01:51:01 63° SSW
Meteor 2-8 Rocket 4.4 01:44:14 10° N 01:50:23 75° W 01:52:18 46° SSW
IDEFIX/ARIANE 42P 2.6 01:50:30 10° NNE 01:55:44 72° ESE 01:57:12 47° S
Cosmos 220 Rocket 4.3 01:53:58 10° NNW 01:57:31 48° WNW 01:57:31 48° WNW
NOSS 3-1 (A) 3.2 02:01:56 42° W 02:03:08 54° NW 02:08:25 10° NNE
Cosmos 1833 4.2 02:06:02 10° NNW 02:11:37 64° WSW 02:13:33 40° S
Cosmos 1140 Rocket 3.6 02:11:29 44° WSW 02:12:48 59° WNW 02:17:51 10° NNE
Cosmos 1656 4.2 02:11:01 32° SSE 02:13:08 48° ESE 02:18:25 10° NE
Resurs 1-4 Rocket 3.8 02:09:16 10° NE 02:13:33 25° E 02:17:13 12° SE
Cosmos 1346 Rocket 2.4 02:14:57 81° WSW 02:15:02 82° W 02:18:41 10° N
SL-4 R/B 3.9 02:15:44 13° NW 02:17:18 17° NNW 02:19:29 10° NNE
H-2A R/B 4.0 02:14:56 10° NE 02:19:01 23° E 02:22:58 10° SE
Cosmos 1782 Rocket 4.2 02:17:48 10° NNW 02:21:51 37° W 02:22:02 37° W
Cosmos 371 Rocket 3.2 02:23:01 44° SSW 02:24:33 88° ESE 02:29:24 10° NNE
Cosmos 304 Rocket 3.7 02:25:25 45° SW 02:26:50 76° WNW 02:31:37 10° NNE
Cosmos 1763 Rocket 3.8 02:22:40 10° NNW 02:27:41 61° ENE 02:32:34 10° SSE
Cosmos 381 Rocket 4.5 02:25:02 35° SSW 02:27:55 76° WNW 02:34:20 10° NNE
Lacrosse 4 Rocket 1.7 02:27:47 10° NW 02:31:47 44° WSW 02:31:50 44° WSW
Cosmos 2297 Rocket 4.1 02:30:31 10° N 02:35:26 30° ENE 02:40:20 10° ESE
Cosmos 2369 Rocket 4.3 02:32:35 10° W 02:35:52 16° NW 02:39:12 10° NNW
Cosmos 1025 Rocket 3.5 02:34:41 28° SSE 02:36:47 57° E 02:41:03 10° NNE
MOZ.5/SAFIR/RUBIN 5/SL-8 4.2 02:35:42 13° SSE 02:39:38 60° ENE 02:44:11 10° N
FENGYUN 3A 3.9 02:38:55 10° N 02:44:09 56° WNW 02:46:39 30° SW
CZ-2D R/B 3.0 02:41:13 10° NNE 02:46:27 45° E 02:50:45 14° SSE
MSX 4.5 02:41:25 10° N 02:46:49 42° WNW 02:49:36 25° WSW
ADEOS Rocket 3.5 02:43:51 10° N 02:49:44 44° WNW 02:52:44 25° SW
DMSP B5D2-2 4.3 02:45:21 10° SSE 02:50:34 74° ENE 02:55:50 10° N
ATLAS 3B R/B 4.2 02:45:20 11° SSE 02:51:33 33° ESE 02:58:18 10° NE
NOSS 2-2 (C) 4.2 02:50:54 10° NNW 02:54:49 60° NE 03:00:14 10° SE
ALOS 2.8 02:51:22 10° NNE 02:55:49 52° E 02:59:08 17° S
SL-24 DEB 4.0 02:54:34 21° S 02:57:31 89° E 03:01:57 10° N
Cosmos 2360 4.2 02:54:41 26° SSW 02:57:59 83° WNW 03:03:43 10° NNE
MOS 1-B Rocket 4.4 02:53:20 10° N 02:59:05 45° WNW 03:02:16 23° SW
Cosmos 2242 Rocket 4.4 02:57:51 27° WSW 02:59:20 36° WNW 03:03:23 10° N
NPP 4.3 02:54:57 10° N 02:59:57 41° WNW 03:02:48 23° SW
Cosmos 405 Rocket 2.7 03:06:51 34° WSW 03:07:19 36° WNW 03:10:07 10° N
Cosmos 1378 Rocket 4.3 03:05:42 26° WSW 03:07:21 35° WNW 03:11:17 10° N
Cosmos 2292 Rocket 3.3 03:06:53 21° SSE 03:08:35 50° E 03:11:41 10° NNE
Cosmos 2084 Rocket 3.8 03:07:47 23° S 03:09:59 51° ESE 03:13:55 10° NE
Cosmos 374 Rocket 4.2 03:09:55 26° SSW 03:12:08 84° SE 03:15:54 10° NE
Okean 2 Rocket 3.0 03:09:29 10° N 03:13:51 89° W 03:18:10 10° S
Envisat 3.0 03:09:45 10° N 03:14:48 68° WNW 03:18:23 19° SSW
SeaSat 1 3.0 03:10:21 10° SE 03:15:09 60° ENE 03:19:59 10° NNW
SJ 16-02 2.3 03:16:15 21° WSW 03:18:20 32° WNW 03:22:09 10° N
Cosmos 1727 Rocket 4.1 03:12:37 10° S 03:18:51 77° E 03:25:03 10° N
CENTAUR R/B 4.1 03:11:40 10° NNW 03:19:56 56° NE 03:29:14 10° SE
Cosmos 407 Rocket 4.5 03:18:01 18° WSW 03:21:00 32° WNW 03:25:34 10° N
Cosmos 2151 Rocket 3.8 03:18:12 10° NNW 03:22:33 50° W 03:26:00 15° SSW
USA 229 DEB 3.6 03:18:15 16° SSW 03:22:54 66° ESE 03:29:18 10° NE
USA 229 3.7 03:18:16 16° SSW 03:22:56 64° ESE 03:29:20 10° NE
Gbstr 26 Del rocket 4.5 03:19:27 18° SSW 03:24:39 65° SE 03:32:17 10° ENE
Cosmos 968 Rocket 4.5 03:21:56 10° S 03:26:51 44° ESE 03:31:49 10° NNE
Meteor 2-16 Rocket 4.5 03:21:01 10° S 03:27:07 87° E 03:33:13 10° N
Meteor 2-21 Rocket 4.5 03:22:53 12° S 03:28:42 80° W 03:34:56 10° N
Cosmos 1862 4.1 03:25:28 10° SSE 03:28:48 42° E 03:32:09 10° NNE
Cosmos 2221 Rocket 3.8 03:27:47 17° SSW 03:31:09 57° W 03:35:36 10° N
SL-16 R/B 4.2 03:26:25 10° SE 03:31:58 36° ENE 03:37:30 10° N
Cosmos 841 Rocket 4.2 03:28:54 10° N 03:34:02 56° ENE 03:39:05 10° SSE
Cosmos 2173 Rocket 4.5 03:28:38 10° N 03:34:55 65° E 03:41:05 10° SSE
METEOR-M 4.4 03:30:27 10° NNE 03:35:48 72° ESE 03:41:07 10° S
Cosmos 1190 Rocket 4.3 03:32:23 16° SW 03:36:27 55° WNW 03:41:36 10° N
Cosmos 540 Rocket 4.2 03:32:39 10° NW 03:37:09 32° W 03:41:37 10° SSW
Cosmos 1954 Rocket 4.1 03:34:15 15° SSW 03:38:31 63° WNW 03:43:38 10° NNE
ADEOS II 2.1 03:37:54 10° N 03:43:08 75° WNW 03:48:19 10° SSW
Cosmos 2100 Rocket 4.2 03:37:07 10° N 03:43:25 79° E 03:49:36 10° S
Cosmos 1697 Rocket 2.7 03:40:53 11° SSW 03:46:17 87° WNW 03:51:56 10° NNE
Sich 1 Rocket 3.9 03:44:10 10° NNW 03:48:32 48° W 03:52:51 10° SSW
Cosmos 2227 Rocket 3.5 03:43:54 10° NNW 03:49:20 46° ENE 03:54:43 10° SE
Okean 1 Rocket 3.7 03:47:00 10° NNW 03:50:58 36° W 03:54:54 10° SSW
H-2A R/B 2.2 03:48:57 10° S 03:52:43 65° WSW 03:56:37 10° NNW
Atlas 2A Centaur Rocket 3.8 03:49:51 11° SSW 03:52:45 21° SSE 03:59:52 10° ESE
Resurs 1-4 Rocket 2.8 03:48:32 10° N 03:53:23 39° WNW 03:58:15 10° SW
Cosmos 1782 2.5 03:51:47 10° NNW 03:55:16 62° W 03:58:43 10° S
Cosmos 2251 Rocket 4.4 03:51:25 12° SW 03:56:00 37° WNW 04:00:57 10° N
USA 234 3.3 03:50:10 10° NE 03:56:45 82° SE 04:03:18 10° SW
Cosmos 2058 2.8 03:53:28 10° S 03:57:20 79° E 04:01:14 10° N
H-2A R/B 2.6 03:53:32 10° N 03:58:27 42° WNW 04:03:14 10° SW
Cosmos 332 Rocket 4.3 03:54:22 11° SW 03:58:43 44° WNW 04:03:16 10° N
Meteor 1-27 4.4 03:53:51 10° NNW 03:59:30 61° W 04:05:12 10° S
Cosmos 1437 Rocket 2.4 03:59:00 10° N 04:02:26 89° NNE 04:05:50 10° S
USA 281 3.9 03:58:33 10° SE 04:04:59 63° ENE 04:11:29 10° NNW
Cosmos 1975 Rocket 3.0 04:01:49 10° SSW 04:06:06 73° W 04:10:24 10° N
CZ-2C R/B 3.9 04:02:24 10° NNE 04:06:47 35° E 04:11:14 10° SSE
H-2A R/B 3.2 04:04:23 10° NNE 04:08:25 43° E 04:12:28 10° S
Cosmos 1802 Rocket 4.2 04:02:10 10° N 04:08:34 83° E 04:15:00 10° S
Cosmos 2228 2.9 04:05:52 10° NNW 04:10:04 71° W 04:14:16 10° S
